SCP
-0 -0 -0 -0 -0 0 0 0 0 0 0 0 0 0 0 -0 -0 -0 -0 -0 -0 0 0 0 -0 0 0 -0 -0 0 0 0 0 0 0 0 0 -0 0 0 0 0 -0
0 -0 -0 0 -0 -0 0 0 0 0 0 0 0 0 0 0 0 -0 -0 -0 -0 -0 0 -0 0 -0 0 0 0 0 0 0 0 0 0 0 0 0 0 -0 -0 0 0
-0 0 -0 0 0 -0 -0 0 0 0 0 0 0 0 0 0 0 0 -0 -0 -0 -0 -0 -0 0 0 0 0 0 0 0 0 0 0 0 0 0 0 -0 -0 -0 0 -0
-0 -0 -0 0 0 0 0 0 0 0 0 0 0 0 0 0 0 0 -0 -0 -0 -0 -0 0 0 0 0 0 0 0 -0 -0 0 0 0 0 0 0 -0 0 -0 -0 -0
-0 0 -0 -0 -0 -0 0 0 0 0 0 0 0 0 0 0 0 0 0 -0 -0 -0 -0 -0 0 0 0 0 0 0 0 0 0 0 0 0 0 0 0 -0 -0 -0 0
-0 -0 -0 -0 -0 -0 0 0 0 0 0 0 0 0 0 0 0 0 0 -0 -0 -0 -0 0 0 0 0 0 0 0 0 0 0 0 0 0 0 0 0 -0 -0 -0 -0
-0 0 0 -0 -0 -0 -0 0 0 0 0 0 0 0 0 0 0 0 0 -0 -0 -0 -0 -0 0 0 0 0 0 0 0 0 0 0 0 0 0 0 -0 0 0 0 -0
0 0 0 -0 -0 -0 -0 -0 0 0 0 0 0 0 0 0 0 0 0 0 -0 -0 -0 0 0 0 0 0 0 0 0 0 0 0 -0 -0 -0 -0 -0 0 -0 0 0
0 0 0 -0 -0 -0 -0 -0 -0 0 0 0 0 0 0 0 0 -0 0 0 0 0 -0 0 0 0 0 0 0 0 0 0 0 0 0 -0 -0 -0 -0 -0 -0 0 -0
0 0 0 -0 0 0 0 -0 -0 -0 0 0 0 0 0 0 0 0 0 0 0 0 0 0 0 0 0 0 0 0 0 0 0 -0 0 0 -0 -0 -0 -0 -0 0 0
0 -0 0 -0 -0 -0 0 -0 -0 -0 -0 -0 -0 -0 0 0 0 0 0 0 0 -0 0 0 0 0 0 0 0 0 0 0 0 0 0 -0 -0 -0 -0 0 -0 0 -0
0 0 0 -0 -0 -0 -0 -0 0 0 0 0 0 -0 0 0 0 0 0 -0 -0 -0 -0 0 0 0 0 0 0 0 0 0 0 0 0 -0 -0 -0 -0 -0 -0 -0 -0
0 0 -0 -0 -0 -0 -0 -0 0 0 0 0 -0 0 0 0 0 -0 0 0 -0 -0 -0 -0 -0 -0 -0 0 0 0 0 0 0 -0 -0 -0 -0 -0 -0 -0 -0 -0 -0
0 -0 0 -0 -0 -0 -0 -0 -0 0 0 0 0 -0 0 0 -0 -0 0 -0 -0 -0 -0 -0 -0 -0 0 0 0 -0 0 -0 0 -0 -0 -0 -0 -0 -0 -0 -0 -0 -0
0 -0 0 0 0 0 0 0 0 0 0 -0 -0 0 0 0 0 0 -0 0 0 0 0 -0 -0 -0 -0 0 -0 0 -0 -0 -0 0 -0 -0 -0 -0 -0 -0 -0 -0 -0
0 0 -0 0 0 0 0 0 -0 -0 0 0 0 -0 -0 0 0 0 -0 0 0 -0 0 0 0 -0 0 -0 -0 0 0 -0 -0 -0 -0 -0 -0 -0 -0 -0 -0 -0 -0
0 -0 0 0 -0 -0 -0 -0 -0 0 0 0 0 -0 -0 -0 0 -0 0 0 0 -0 0 -0 0 0 0 0 0 -0 -0 -0 -0 -0 0 0 0 -0 -0 -0 -0 -0 -0
-0 -0 -0 -0 0 0 0 0 0 0 -0 -0 0 -0 -0 -0 -0 -0 -0 0 -0 -0 -0 -0 -0 0 0 0 0 -0 0 -0 -0 -0 0 0 0 0 0 -0 -0 -0 -0
-0 -0 -0 -0 -0 -0 0 -0 -0 0 0 -0 -0 -0 -0 -0 -0 -0 -0 -0 0 0 0 -0 0 -0 -0 -0 0 0 0 0 0 0 0 0 0 0 0 0 -0 -0 -0
-0 -0 -0 -0 -0 -0 0 -0 0 -0 -0 -0 -0 -0 -0 -0 -0 -0 -0 0 0 -0 0 -0 0 -0 0 -0 -0 0 0 0 -0 -0 0 0 0 -0 -0 0 -0 -0 -0
-0 -0 -0 -0 -0 -0 0 0 0 0 0 -0 -0 -0 -0 -0 0 0 0 -0 -0 -0 0 -0 -0 -0 0 0 -0 0 0 -0 0 0 0 0 -0 -0 -0 -0 -0 0 0
-0 -0 -0 -0 -1 -0 -0 0 0 0 0 -0 0 0 -0 -0 -0 0 0 -0 -0 -0 -0 0 0 -0 0 0 -0 0 -0 -0 0 0 0 0 -0 -0 -0 -0 -0 -0 0
-0 -0 -0 -0 -1 -0 -0 0 -0 -0 -0 0 0 0 -0 0 0 0 -0 -0 -0 -0 -0 -0 0 0 0 0 -0 -0 0 0 0 0 0 0 -0 -0 -0 -0 -0 -0 -0
-1 -1 -0 -1 -0 -0 -0 -0 -0 -0 -0 0 0 0 0 0 0 0 0 0 -0 -0 -0 0 0 -0 0 0 0 -0 -0 0 0 0 0 0 0 -0 -0 -0 -0 -0 -0
-1 -1 -1 -1 -1 -0 -0 0 -0 -0 -0 0 0 0 -0 -0 -0 0 0 0 0 0 0 -0 0 -0 0 -0 0 0 -0 0 0 0 -0 0 0 0 -0 -0 -0 -0 -0
-1 -1 -1 -1 -1 -0 -0 -0 -0 -0 -0 -0 0 0 0 0 -0 0 0 0 0 0 0 0 0 0 0 0 0 -0 -0 0 0 0 0 0 0 0 0 0 0 0 0
Wind_Speed_500mb
38 36 35 33 30 31 33 37 36 32 33 32 30 32 29 29 26 26 30 29 30 30 34 33 32 35 38 40 43 46 47 46 48 54 55 52 50 45 43 46 47 46 46
43 39 35 32 28 29 32 34 34 32 34 31 31 32 30 27 25 24 28 26 27 29 30 32 33 34 38 41 43 46 44 43 40 46 49 48 44 43 37 40 41 42 42
44 41 37 33 31 28 29 32 30 31 27 30 30 31 30 27 21 24 25 26 26 27 30 31 31 34 35 40 45 47 50 48 42 35 36 40 43 37 30 33 37 38 37
44 42 38 34 29 28 27 29 28 25 24 27 27 29 30 25 22 21 25 28 29 30 31 33 31 35 41 46 51 51 49 48 43 37 27 31 38 32 26 31 33 34 35
42 39 36 33 28 25 26 25 24 21 23 24 24 25 29 28 26 22 29 33 35 35 34 32 31 35 47 52 48 41 37 35 29 24 24 20 32 31 29 31 34 33 31
37 37 35 31 27 25 23 22 22 19 22 21 20 22 26 26 25 29 37 37 39 38 34 32 32 37 52 52 43 35 29 31 29 26 16 15 26 32 33 28 28 30 27
38 34 33 30 26 22 21 18 21 20 17 17 17 19 24 22 26 31 35 37 39 38 35 33 35 44 54 48 40 33 37 39 30 16 10 12 27 27 27 28 29 27 27
33 32 34 30 27 23 21 16 17 19 13 13 15 17 21 22 23 27 29 33 36 36 37 40 42 48 51 48 41 33 33 32 20 13 7 18 24 25 26 26 26 26 26
37 32 34 32 29 24 19 16 12 10 11 11 12 15 14 20 22 23 28 28 32 34 37 38 41 43 46 43 39 34 33 28 15 6 11 17 22 24 24 25 24 24 24
28 38 34 30 25 21 17 11 7 5 10 11 11 8 11 18 25 23 27 28 29 33 34 34 37 39 42 41 36 34 29 26 20 22 13 13 19 22 21 21 21 21 20
31 20 30 26 21 17 12 8 9 11 13 13 8 18 16 18 21 27 26 26 28 30 31 30 30 33 38 38 40 36 28 25 21 5 6 10 15 20 22 20 21 20 20
33 25 24 23 20 15 13 7 11 17 15 12 4 12 12 16 19 26 23 26 28 27 28 26 24 24 30 35 36 29 24 24 25 14 4 3 12 16 20 20 19 19 18
34 26 26 14 14 19 7 11 16 17 13 11 7 8 8 14 17 25 25 26 30 30 30 27 24 22 27 38 33 27 17 15 24 26 7 2 5 14 17 18 19 18 17
42 38 38 20 26 32 13 7 9 10 9 5 5 2 6 7 14 23 23 24 26 27 25 24 25 24 27 24 20 19 1 4 22 27 17 4 3 8 13 15 16 18 18
41 41 45 34 40 29 24 12 12 14 10 10 14 3 5 7 15 28 28 26 24 22 21 22 27 27 18 26 20 19 16 2 21 26 24 14 5 6 11 13 15 15 16
40 43 50 39 37 35 32 23 16 21 17 20 23 11 8 11 15 22 28 27 21 15 19 18 15 20 28 20 21 20 16 20 15 32 22 17 12 10 9 13 15 16 16
46 38 45 37 31 31 37 28 21 23 23 24 22 11 9 11 17 25 23 27 24 19 19 15 19 22 25 27 18 19 17 18 19 15 21 15 11 11 12 13 16 20 21
36 45 45 44 31 29 37 36 21 28 17 14 14 13 3 10 17 23 22 22 22 25 27 23 23 22 26 32 32 24 27 25 22 22 20 20 14 15 17 17 15 24 24
37 51 48 38 36 24 25 23 17 19 19 18 12 14 8 4 15 21 21 19 11 21 24 23 22 23 31 29 34 30 37 36 30 22 24 32 28 21 23 23 21 27 28
40 49 34 37 46 27 27 21 20 17 19 14 9 9 12 6 12 25 23 20 20 26 28 23 26 28 32 28 30 34 32 32 36 36 34 41 26 29 37 35 31 29 25
50 56 42 36 49 39 33 28 23 23 19 14 16 15 15 7 13 26 18 17 19 19 18 24 19 21 16 20 24 33 39 44 47 44 43 47 44 40 43 41 36 38 38
55 53 51 42 42 37 24 13 21 20 25 20 17 14 15 10 13 22 21 17 19 19 14 19 17 15 13 11 10 8 9 14 23 25 28 37 43 40 41 42 41 39 37
57 53 43 49 44 41 28 29 25 29 25 24 17 22 15 14 13 20 19 19 23 18 11 14 15 17 9 10 9 8 5 1 0 7 12 17 26 36 33 33 32 31 27
61 51 43 52 48 45 34 31 30 20 19 19 14 19 18 15 15 24 20 20 17 17 14 24 30 21 12 8 3 6 3 2 5 2 0 9 16 15 13 8 9 12 7
64 58 49 49 51 44 39 37 33 26 18 20 13 4 39 21 23 22 20 16 19 18 15 21 26 19 15 12 10 6 6 8 7 7 2 2 8 9 11 14 9 9 12
73 68 57 48 46 46 43 44 39 33 33 19 12 15 5 14 16 16 16 14 12 17 17 20 24 18 17 20 18 16 12 4 6 14 21 11 11 10 14 17 20 19 21
Wind_Direction_500mb
150 134 130 128 119 109 108 99 93 91 83 81 82 81 85 97 106 115 120 120 118 115 106 106 111 109 108 110 116 116 115 120 116 111 110 108 106 104 107 111 112 109 109
144 136 131 127 122 115 108 100 96 85 83 78 72 76 82 87 104 114 124 124 119 118 115 114 113 120 116 114 110 109 112 105 114 116 112 110 107 110 107 110 109 110 111
145 139 136 128 121 116 106 101 95 85 80 82 77 76 79 82 93 111 125 132 128 121 119 122 119 116 116 113 114 111 108 103 102 104 115 114 112 113 107 115 110 110 108
149 142 138 130 124 119 112 105 99 92 86 85 80 80 79 91 86 100 123 136 133 126 121 121 119 113 117 118 118 111 107 102 93 97 89 116 121 122 116 114 111 113 108
151 149 144 137 132 129 122 113 107 94 87 84 78 78 77 83 81 89 123 134 134 129 124 124 119 115 121 120 115 115 111 105 104 105 86 109 116 119 121 116 114 113 110
133 152 148 144 141 139 133 125 106 94 90 82 76 80 85 83 90 93 114 126 129 129 128 125 123 123 130 121 115 109 110 112 116 119 81 105 123 115 108 115 121 118 120
143 151 151 150 146 146 138 133 120 103 86 89 82 88 95 94 92 97 114 123 129 131 128 123 119 125 134 131 123 109 98 111 126 125 96 115 128 117 116 118 120 118 120
163 160 155 150 149 150 141 135 128 117 88 79 86 92 97 105 108 114 125 129 134 133 129 125 123 128 130 133 126 121 104 116 134 100 79 143 131 126 125 123 118 122 121
149 164 161 154 152 148 144 138 125 110 105 87 89 91 106 117 121 126 135 136 143 140 136 127 124 132 138 134 121 116 113 122 145 99 92 134 131 126 126 125 126 123 125
173 162 165 155 149 150 146 135 111 96 102 104 107 106 125 138 135 146 146 151 153 151 149 139 131 127 138 139 131 130 132 129 141 103 86 137 135 133 132 127 130 133 130
153 158 170 160 159 154 120 120 101 117 113 125 130 76 96 139 146 144 157 158 163 164 166 162 151 137 134 143 139 136 113 149 173 133 70 147 147 143 142 141 142 140 138
168 164 148 143 132 134 111 51 107 131 122 113 91 86 113 136 152 152 155 170 173 173 172 174 173 170 165 146 152 151 131 148 182 200 93 127 174 159 154 155 153 153 152
172 171 171 170 161 157 119 79 120 127 131 110 81 70 110 132 161 161 164 171 181 180 179 171 167 162 163 172 168 166 163 188 195 203 218 74 204 180 175 163 165 159 155
185 179 195 193 211 187 202 178 120 133 136 137 157 134 110 121 166 170 170 169 181 179 181 184 181 166 163 163 169 172 172 220 208 209 206 199 256 221 185 182 177 172 172
180 189 184 179 185 175 175 165 214 174 179 190 200 158 182 167 173 183 171 161 155 164 175 170 177 181 180 165 188 200 197 281 204 219 212 176 196 246 236 207 194 189 189
198 190 178 187 209 203 184 199 181 179 183 180 195 211 199 180 166 168 174 172 161 160 154 170 181 204 198 205 204 198 210 233 232 201 204 198 193 200 227 241 230 213 209
198 175 193 199 215 215 196 193 202 205 214 210 201 215 196 190 176 167 165 169 164 169 177 176 183 192 203 208 214 206 215 204 220 194 196 215 232 225 231 245 242 237 227
191 187 201 200 207 201 193 201 195 184 196 211 229 200 166 200 175 170 164 170 179 183 196 205 196 193 206 204 223 212 221 230 226 223 203 198 212 232 240 235 242 243 241
184 181 193 209 208 175 159 169 187 191 180 207 195 188 193 203 180 179 180 163 188 203 207 211 206 212 214 211 209 221 222 236 230 213 233 240 238 230 226 237 249 252 245
183 192 189 189 203 189 169 170 192 187 195 229 241 210 251 250 184 177 186 164 170 185 193 200 222 207 219 227 228 237 234 238 241 244 251 235 226 238 228 242 242 242 248
187 189 179 187 202 192 177 180 195 208 211 201 206 222 219 211 189 196 198 172 182 205 208 189 192 199 225 230 229 233 239 248 251 253 249 238 247 241 247 247 241 245 257
189 191 185 193 197 205 176 212 194 202 204 217 222 210 203 228 208 213 203 188 193 198 195 180 180 199 212 195 184 158 202 232 240 237 245 243 247 243 247 249 253 254 261
194 190 193 194 200 201 183 198 216 225 211 231 255 219 222 214 213 210 205 198 198 204 226 200 192 202 198 159 152 98 149 174 190 253 222 214 228 236 242 249 254 263 263
197 194 185 194 208 207 211 191 218 217 211 240 272 211 193 202 225 198 212 201 216 212 236 198 189 180 201 161 151 234 96 8 94 62 104 190 192 207 218 205 247 215 279
198 199 204 206 205 208 208 199 212 225 217 235 275 289 287 201 202 206 215 218 210 206 210 187 193 188 193 215 228 237 207 252 257 282 306 199 238 237 218 218 233 235 250
204 202 204 206 209 212 203 196 205 216 207 231 224 247 28 213 217 215 211 218 222 195 191 199 196 200 204 205 199 198 240 285 307 301 270 268 265 278 269 256 257 262 279
Wind_Speed_850mb
38 36 35 33 30 31 33 37 36 32 33 32 30 32 29 29 26 26 30 29 30 30 34 33 32 35 38 40 43 46 47 46 48 54 55 52 50 45 43 46 47 46 46
43 39 35 32 28 29 32 34 34 32 34 31 31 32 30 27 25 24 28 26 27 29 30 32 33 34 38 41 43 46 44 43 40 46 49 48 44 43 37 40 41 42 42
44 41 37 33 31 28 29 32 30 31 27 30 30 31 30 27 21 24 25 26 26 27 30 31 31 34 35 40 45 47 50 48 42 35 36 40 43 37 30 33 37 38 37
44 42 38 34 29 28 27 29 28 25 24 27 27 29 30 25 22 21 25 28 29 30 31 33 31 35 41 46 51 51 49 48 43 37 27 31 38 32 26 31 33 34 35
42 39 36 33 28 25 26 25 24 21 23 24 24 25 29 28 26 22 29 33 35 35 34 32 31 35 47 52 48 41 37 35 29 24 24 20 32 31 29 31 34 33 31
37 37 35 31 27 25 23 22 22 19 22 21 20 22 26 26 25 29 37 37 39 38 34 32 32 37 52 52 43 35 29 31 29 26 16 15 26 32 33 28 28 30 27
38 34 33 30 26 22 21 18 21 20 17 17 17 19 24 22 26 31 35 37 39 38 35 33 35 44 54 48 40 33 37 39 30 16 10 12 27 27 27 28 29 27 27
33 32 34 30 27 23 21 16 17 19 13 13 15 17 21 22 23 27 29 33 36 36 37 40 42 48 51 48 41 33 33 32 20 13 7 18 24 25 26 26 26 26 26
37 32 34 32 29 24 19 16 12 10 11 11 12 15 14 20 22 23 28 28 32 34 37 38 41 43 46 43 39 34 33 28 15 6 11 17 22 24 24 25 24 24 24
28 38 34 30 25 21 17 11 7 5 10 11 11 8 11 18 25 23 27 28 29 33 34 34 37 39 42 41 36 34 29 26 20 22 13 13 19 22 21 21 21 21 20
31 20 30 26 21 17 12 8 9 11 13 13 8 18 16 18 21 27 26 26 28 30 31 30 30 33 38 38 40 36 28 25 21 5 6 10 15 20 22 20 21 20 20
33 25 24 23 20 15 13 7 11 17 15 12 4 12 12 16 19 26 23 26 28 27 28 26 24 24 30 35 36 29 24 24 25 14 4 3 12 16 20 20 19 19 18
34 26 26 14 14 19 7 11 16 17 13 11 7 8 8 14 17 25 25 26 30 30 30 27 24 22 27 38 33 27 17 15 24 26 7 2 5 14 17 18 19 18 17
42 38 38 20 26 32 13 7 9 10 9 5 5 2 6 7 14 23 23 24 26 27 25 24 25 24 27 24 20 19 1 4 22 27 17 4 3 8 13 15 16 18 18
41 41 45 34 40 29 24 12 12 14 10 10 14 3 5 7 15 28 28 26 24 22 21 22 27 27 18 26 20 19 16 2 21 26 24 14 5 6 11 13 15 15 16
40 43 50 39 37 35 32 23 16 21 17 20 23 11 8 11 15 22 28 27 21 15 19 18 15 20 28 20 21 20 16 20 15 32 22 17 12 10 9 13 15 16 16
46 38 45 37 31 31 37 28 21 23 23 24 22 11 9 11 17 25 23 27 24 19 19 15 19 22 25 27 18 19 17 18 19 15 21 15 11 11 12 13 16 20 21
36 45 45 44 31 29 37 36 21 28 17 14 14 13 3 10 17 23 22 22 22 25 27 23 23 22 26 32 32 24 27 25 22 22 20 20 14 15 17 17 15 24 24
37 51 48 38 36 24 25 23 17 19 19 18 12 14 8 4 15 21 21 19 11 21 24 23 22 23 31 29 34 30 37 36 30 22 24 32 28 21 23 23 21 27 28
40 49 34 37 46 27 27 21 20 17 19 14 9 9 12 6 12 25 23 20 20 26 28 23 26 28 32 28 30 34 32 32 36 36 34 41 26 29 37 35 31 29 25
50 56 42 36 49 39 33 28 23 23 19 14 16 15 15 7 13 26 18 17 19 19 18 24 19 21 16 20 24 33 39 44 47 44 43 47 44 40 43 41 36 38 38
55 53 51 42 42 37 24 13 21 20 25 20 17 14 15 10 13 22 21 17 19 19 14 19 17 15 13 11 10 8 9 14 23 25 28 37 43 40 41 42 41 39 37
57 53 43 49 44 41 28 29 25 29 25 24 17 22 15 14 13 20 19 19 23 18 11 14 15 17 9 10 9 8 5 1 0 7 12 17 26 36 33 33 32 31 27
61 51 43 52 48 45 34 31 30 20 19 19 14 19 18 15 15 24 20 20 17 17 14 24 30 21 12 8 3 6 3 2 5 2 0 9 16 15 13 8 9 12 7
64 58 49 49 51 44 39 37 33 26 18 20 13 4 39 21 23 22 20 16 19 18 15 21 26 19 15 12 10 6 6 8 7 7 2 2 8 9 11 14 9 9 12
73 68 57 48 46 46 43 44 39 33 33 19 12 15 5 14 16 16 16 14 12 17 17 20 24 18 17 20 18 16 12 4 6 14 21 11 11 10 14 17 20 19 21
Wind_Direction_850mb
150 134 130 128 119 109 108 99 93 91 83 81 82 81 85 97 106 115 120 120 118 115 106 106 111 109 108 110 116 116 115 120 116 111 110 108 106 104 107 111 112 109 109
144 136 131 127 122 115 108 100 96 85 83 78 72 76 82 87 104 114 124 124 119 118 115 114 113 120 116 114 110 109 112 105 114 116 112 110 107 110 107 110 109 110 111
145 139 136 128 121 116 106 101 95 85 80 82 77 76 79 82 93 111 125 132 128 121 119 122 119 116 116 113 114 111 108 103 102 104 115 114 112 113 107 115 110 110 108
149 142 138 130 124 119 112 105 99 92 86 85 80 80 79 91 86 100 123 136 133 126 121 121 119 113 117 118 118 111 107 102 93 97 89 116 121 122 116 114 111 113 108
151 149 144 137 132 129 122 113 107 94 87 84 78 78 77 83 81 89 123 134 134 129 124 124 119 115 121 120 115 115 111 105 104 105 86 109 116 119 121 116 114 113 110
133 152 148 144 141 139 133 125 106 94 90 82 76 80 85 83 90 93 114 126 129 129 128 125 123 123 130 121 115 109 110 112 116 119 81 105 123 115 108 115 121 118 120
143 151 151 150 146 146 138 133 120 103 86 89 82 88 95 94 92 97 114 123 129 131 128 123 119 125 134 131 123 109 98 111 126 125 96 115 128 117 116 118 120 118 120
163 160 155 150 149 150 141 135 128 117 88 79 86 92 97 105 108 114 125 129 134 133 129 125 123 128 130 133 126 121 104 116 134 100 79 143 131 126 125 123 118 122 121
149 164 161 154 152 148 144 138 125 110 105 87 89 91 106 117 121 126 135 136 143 140 136 127 124 132 138 134 121 116 113 122 145 99 92 134 131 126 126 125 126 123 125
173 162 165 155 149 150 146 135 111 96 102 104 107 106 125 138 135 146 146 151 153 151 149 139 131 127 138 139 131 130 132 129 141 103 86 137 135 133 132 127 130 133 130
153 158 170 160 159 154 120 120 101 117 113 125 130 76 96 139 146 144 157 158 163 164 166 162 151 137 134 143 139 136 113 149 173 133 70 147 147 143 142 141 142 140 138
168 164 148 143 132 134 111 51 107 131 122 113 91 86 113 136 152 152 155 170 173 173 172 174 173 170 165 146 152 151 131 148 182 200 93 127 174 159 154 155 153 153 152
172 171 171 170 161 157 119 79 120 127 131 110 81 70 110 132 161 161 164 171 181 180 179 171 167 162 163 172 168 166 163 188 195 203 218 74 204 180 175 163 165 159 155
185 179 195 193 211 187 202 178 120 133 136 137 157 134 110 121 166 170 170 169 181 179 181 184 181 166 163 163 169 172 172 220 208 209 206 199 256 221 185 182 177 172 172
180 189 184 179 185 175 175 165 214 174 179 190 200 158 182 167 173 183 171 161 155 164 175 170 177 181 180 165 188 200 197 281 204 219 212 176 196 246 236 207 194 189 189
198 190 178 187 209 203 184 199 181 179 183 180 195 211 199 180 166 168 174 172 161 160 154 170 181 204 198 205 204 198 210 233 232 201 204 198 193 200 227 241 230 213 209
198 175 193 199 215 215 196 193 202 205 214 210 201 215 196 190 176 167 165 169 164 169 177 176 183 192 203 208 214 206 215 204 220 194 196 215 232 225 231 245 242 237 227
191 187 201 200 207 201 193 201 195 184 196 211 229 200 166 200 175 170 164 170 179 183 196 205 196 193 206 204 223 212 221 230 226 223 203 198 212 232 240 235 242 243 241
184 181 193 209 208 175 159 169 187 191 180 207 195 188 193 203 180 179 180 163 188 203 207 211 206 212 214 211 209 221 222 236 230 213 233 240 238 230 226 237 249 252 245
183 192 189 189 203 189 169 170 192 187 195 229 241 210 251 250 184 177 186 164 170 185 193 200 222 207 219 227 228 237 234 238 241 244 251 235 226 238 228 242 242 242 248
187 189 179 187 202 192 177 180 195 208 211 201 206 222 219 211 189 196 198 172 182 205 208 189 192 199 225 230 229 233 239 248 251 253 249 238 247 241 247 247 241 245 257
189 191 185 193 197 205 176 212 194 202 204 217 222 210 203 228 208 213 203 188 193 198 195 180 180 199 212 195 184 158 202 232 240 237 245 243 247 243 247 249 253 254 261
194 190 193 194 200 201 183 198 216 225 211 231 255 219 222 214 213 210 205 198 198 204 226 200 192 202 198 159 152 98 149 174 190 253 222 214 228 236 242 249 254 263 263
197 194 185 194 208 207 211 191 218 217 211 240 272 211 193 202 225 198 212 201 216 212 236 198 189 180 201 161 151 234 96 8 94 62 104 190 192 207 218 205 247 215 279
198 199 204 206 205 208 208 199 212 225 217 235 275 289 287 201 202 206 215 218 210 206 210 187 193 188 193 215 228 237 207 252 257 282 306 199 238 237 218 218 233 235 250
204 202 204 206 209 212 203 196 205 216 207 231 224 247 28 213 217 215 211 218 222 195 191 199 196 200 204 205 199 198 240 285 307 301 270 268 265 278 269 256 257 262 279